Regional Weather Roundup
Issued by NWS

Home | Current Version | Previous Version | Text Only | Print | Product List | Glossary Off
Versions: 1 2 3 4 5 6 7 8 9 10 11 12 13 14 15 16 17 18 19 20 21 22 23 24 25 26 27 28 29 30 31 32 33 34 35 36 37 38 39 40 41 42 43 44 45 46 47 48 49 50

000
ASUS43 KLOT 180609
RWRIL

ILLINOIS REGIONAL WEATHER ROUNDUP
NATIONAL WEATHER SERVICE CHICAGO/ROMEOVILLE IL
100 AM CDT WED OCT 18 2017

NOTE: "FAIR" INDICATES FEW OR NO CLOUDS BELOW 12,000 FEET WITH NO
SIGNIFICANT WEATHER AND/OR OBSTRUCTIONS TO VISIBILITY.

* THESE STATIONS ARE NOT UNDER NWS QUALITY CONTROL. THEY ALSO MAY NOT
  REPORT WEATHER SUCH AS PRECIPITATION OR FOG.

ILZ001-002-007-009-015-016-024-180700-
NORTHWEST ILLINOIS

CITY           SKY/WX    TMP DP  RH WIND       PRES   REMARKS
MOLINE         CLEAR     55  41  59 S12       30.10F
6HR MIN TEMP:  51; 6HR MAX TEMP:  60;

STERLING*      CLEAR     51  42  71 CALM        N/A
SAVANNA*       CLEAR     49  42  78 S6        30.11S
$$

ILZ003-004-008-010-011-017-018-180700-
NORTH CENTRAL ILLINOIS

CITY           SKY/WX    TMP DP  RH WIND       PRES   REMARKS
ROCKFORD       CLEAR     49  41  74 CALM      30.14F
6HR MIN TEMP:  48; 6HR MAX TEMP:  58;

FREEPORT*      CLEAR     51  42  69 S13       30.12F
ROCHELLE*      CLEAR     48  42  80 S5        30.14S
DE KALB*       CLEAR     46  41  83 S9        30.14F
PERU*          CLEAR     48  40  73 S8        30.15F
$$

ILZ005-006-012>014-019>023-180700-
NORTHEAST ILLINOIS

CITY           SKY/WX    TMP DP  RH WIND       PRES   REMARKS
CHICAGO-OHARE  CLEAR     56  39  53 SW9       30.14S
6HR MIN TEMP:  56; 6HR MAX TEMP:  64;

CHICAGO-MIDWAY CLEAR     54  41  61 SW9       30.15F
6HR MIN TEMP:  54; 6HR MAX TEMP:  65;

AURORA         CLEAR     49  41  74 S5        30.16S
6HR MIN TEMP:  49; 6HR MAX TEMP:  60;

LANSING*       CLEAR     50  42  74 S8        30.18S
JOLIET*        CLEAR     53  42  66 S3        30.16F
WAUKEGAN       CLEAR     53  42  66 SW9       30.12S
6HR MIN TEMP:  52; 6HR MAX TEMP:  60;

DUPAGE AIRPORT CLEAR     51  42  71 S8        30.14S
6HR MIN TEMP:  50; 6HR MAX TEMP:  60;

KANKAKEE*      PTCLDY    47  39  76 S6        30.19F
WHEELING       CLEAR     57  41  55 SW7       30.15S
6HR MIN TEMP:  56; 6HR MAX TEMP:  64;

MORRIS*        PTCLDY    46  40  77 S6        30.16S
ROMEOVILLE*    CLEAR     52  41  67 SW8       30.16S
NORTHERLY ISL    N/A     56  38  50 S8          N/A
$$

LMZ740>746-180700-
SOUTHERN LAKE MICHIGAN

STATION/POSITION SKY/WX   TEMP    WIND        PRES    VSBY  WAVE
                          AIR SEA DIR/SP/G                  HT/PER
                          (F)     (DEG/KT/KT) (MB)    (MI)  (FT/S)
SOUTHERN BUOY              62 61  230/ 19/ 23 1019.9          3/ 5
WILMETTE HARBOR            58 58  200/ 12/ 14   N/A           2/ 3
HARRISON CRIB              60     200/ 17/ 19   N/A
BURNHAM HARBOR             56     210/  6/ 11   N/A
CALUMET HARBOR                    200/  7/  9 1020.7R
BURNS HARBOR               55     190/ 12/ 14 1022.4R
MICHIGAN CITY              55     170/ 13/ 15   N/A
MICHIGAN CITY 6N           57 57  200/ 12/ 17   N/A           2/ 3
ST. JOSEPH                 57 58  200/ 12/ 16 1022.2S         3/ 4
$$

ILZ025>027-034>036-040-047-049-050-058-095>099-180700-
WEST-CENTRAL ILLINOIS

CITY           SKY/WX    TMP DP  RH WIND       PRES   REMARKS
QUINCY         CLEAR     52  40  63 S6        30.14F
GALESBURG*     CLEAR     50  42  73 S6        30.14F
MACOMB*        CLEAR     50  42  74 S9        30.16F
JACKSONVILLE*  CLEAR     52  41  66 S6        30.17S
PITTSFIELD*    CLEAR     50  41  70 S3        30.17S
$$

ILZ028>032-037-038-041>044-048-051>054-059>061-180700-
CENTRAL ILLINOIS

CITY           SKY/WX    TMP DP  RH WIND       PRES   REMARKS
PONTIAC        PTCLDY    50  43  76 S7        30.18S
BLOOMINGTON    PTCLDY    46  40  79 S10       30.19F
DECATUR        CLEAR     48  40  73 S7        30.21S
PEORIA         CLEAR     51  41  68 S8        30.16F
6HR MIN TEMP:  51; 6HR MAX TEMP:  59;

LACON*         CLEAR     54  40  59 S8        30.14S
LINCOLN*       CLEAR     49  42  75 S6        30.19S
SPRINGFIELD    CLEAR     54  42  64 S10       30.18F
6HR MIN TEMP:  52; 6HR MAX TEMP:  59;

TAYLORVILLE    CLEAR     46  41  83 S6        30.20F
6HR MIN TEMP:  46; 6HR MAX TEMP:  55;

$$

ILZ033-039-045-046-055>057-062-063-180700-
EAST-CENTRAL ILLINOIS

CITY           SKY/WX    TMP DP  RH WIND       PRES   REMARKS
CHAMPAIGN      CLEAR     51  40  65 S12       30.21F
DANVILLE*      CLEAR     47  38  72 S6        30.20S
RANTOUL*       CLEAR     46  41  84 S3        30.21S
MATTOON        CLEAR     49  41  74 S6        30.22S
PARIS*         PTCLDY    43  40  88 S5        30.24S
$$

ILZ079-100>102-180700-
SOUTHWEST ILLINOIS

CITY           SKY/WX    TMP DP  RH WIND       PRES   REMARKS
ALTON          CLEAR     45  42  89 CALM      30.20F
BELLEVILLE     CLEAR     44  41  90 CALM      30.23F
CAHOKIA*       CLEAR     48  41  76 S3        30.20S
SPARTA*        CLEAR     48  42  81 SE3       30.23S
$$

ILZ064>066-069>071-074>076-080>082-084>086-088>090-092>094-180700-
SOUTH-CENTRAL ILLINOIS

CITY           SKY/WX    TMP DP  RH WIND       PRES   REMARKS
CARBONDALE     CLEAR     42  42 100 CALM      30.23F
6HR MIN TEMP:  40; 6HR MAX TEMP:  53;

CAIRO*         FOG       41  41 100 CALM      30.23F VSB 1
EFFINGHAM*     CLEAR     43  42  97 CALM      30.25S
MARION         CLEAR     49  46  91 CALM      30.24F
MT. VERNON     CLEAR     38  38 100 CALM      30.23F FOG
CENTRALIA*     CLEAR     44  42  93 SE3       30.22S
SALEM*         CLEAR     48  42  79 S3        30.22F
METROPOLIS*    CLEAR     43  42  98 CALM      30.25S
$$

ILZ067-068-072-073-078-083-087-091-180700-
SOUTHEAST ILLINOIS

CITY           SKY/WX    TMP DP  RH WIND       PRES   REMARKS
LAWRENCEVILLE  CLEAR     47  43  86 CALM      30.25S
FLORA*         CLEAR     45  42  91 CALM      30.24S
FAIRFIELD*     CLEAR     45  43  93 CALM      30.23S
HARRISBURG*    PTCLDY    43  42  97 CALM      30.25S
ROBINSON*      CLEAR     39  39 100 CALM      30.26S
CARMI*         PTCLDY    43  41  94 S5        30.24S
$$

ABBREVIATIONS USED IN REMARKS
   TC - TEMPERATURE IN CELSIUS
  WCI - WIND CHILL INDEX
   HX - HEAT INDEX
  VSB - VISIBILITY
$$





USA.gov is the U.S. government's official web portal to all federal, state and local government web resources and services.